Cloud_Cover
100 100 100 100 83 44 7 5 8 100 95 9 6 61 7 11 16 100 90 34 5 11 53 84 11 66 12 5 5 5 5 93 34 4 9 10 5 5 9 5 5 5 11
100 100 100 100 66 41 97 6 31 100 97 50 98 100 25 76 14 100 48 17 42 100 60 20 49 99 100 99 5 86 59 100 64 5 2 5 5 5 7 5 5 5 5
100 100 100 65 100 100 100 100 98 100 100 78 100 86 80 59 66 100 75 5 14 100 22 99 94 75 100 70 41 93 100 21 98 5 5 5 5 5 5 5 6 5 5
100 100 100 100 70 91 98 91 32 82 100 100 100 100 95 36 97 89 19 5 16 100 73 16 47 53 55 58 43 6 53 97 99 100 76 6 17 48 5 5 33 78 40
100 100 84 100 100 100 94 38 22 100 100 97 100 41 99 78 100 100 94 5 68 66 23 86 5 100 13 66 61 58 77 81 100 100 75 33 5 13 63 7 5 5 5
100 100 100 99 84 99 100 25 100 100 48 99 99 100 100 30 100 100 50 8 87 99 100 100 30 100 68 91 66 92 84 72 13 71 93 5 5 5 5 5 5 5 42
100 100 100 67 98 100 97 98 78 100 28 99 73 86 100 13 85 100 34 13 84 100 100 100 67 100 84 28 92 100 100 100 99 30 100 97 13 5 32 5 5 6 5
100 100 100 100 100 100 49 32 26 93 100 98 26 99 88 6 56 54 63 70 27 100 100 93 98 100 100 81 95 100 100 100 100 100 99 100 85 5 5 5 5 4 7
100 100 100 88 84 39 62 97 52 88 70 8 91 100 33 5 96 48 95 100 100 100 100 99 100 100 100 100 97 100 100 100 100 100 100 100 100 21 5 17 5 5 6
100 100 100 89 94 30 61 100 71 100 53 52 100 79 98 6 60 94 100 100 100 100 100 100 100 97 99 100 100 100 100 100 100 100 100 100 100 92 92 97 32 5 5
100 100 100 100 39 79 99 40 96 81 27 17 43 94 54 12 7 100 100 100 100 100 100 100 100 100 100 100 100 100 100 100 100 100 100 100 100 74 100 5 94 4 5
100 100 100 100 100 100 100 100 93 73 56 99 47 5 5 14 21 100 100 100 100 100 99 98 100 100 100 100 100 100 100 100 100 100 100 100 100 100 99 8 5 5 5
100 100 100 100 100 100 100 100 78 30 72 100 98 36 5 5 72 100 100 100 100 93 100 99 100 100 100 100 100 100 100 100 100 100 100 90 100 100 91 18 7 5 5
100 100 100 100 100 100 100 93 92 56 100 100 70 12 1 4 9 98 100 100 100 100 100 100 100 100 100 100 100 100 96 99 100 100 100 14 73 90 35 5 5 17 4
100 100 100 100 100 100 100 100 48 85 100 59 23 18 32 1 17 100 100 89 79 100 100 100 100 92 100 100 84 100 56 98 85 86 100 100 100 98 100 51 5 5 5
100 100 92 100 100 100 100 100 96 100 33 94 100 68 0 4 36 100 100 98 80 99 80 100 100 54 100 94 8 78 54 98 37 99 100 98 100 99 100 100 85 6 5
100 100 100 100 100 100 100 100 96 100 6 91 100 6 4 4 100 100 98 100 85 19 10 94 100 100 95 22 11 5 7 34 89 81 100 100 100 86 96 100 93 97 72
100 100 100 100 100 100 100 97 99 99 5 6 98 84 2 1 83 100 100 98 100 100 74 100 100 100 75 20 39 5 5 5 89 100 69 98 99 73 52 99 100 90 88
100 100 100 100 100 100 94 52 95 5 7 71 64 2 0 12 100 100 100 100 100 100 100 100 100 76 9 6 5 5 5 37 84 100 100 100 100 99 98 45 74 46 97
74 100 100 100 100 100 94 9 19 7 13 99 10 5 5 11 99 100 100 100 100 100 100 100 57 77 11 5 5 5 5 0 6 91 45 99 100 100 95 27 76 56 70
99 94 42 100 97 78 12 28 5 5 61 42 5 15 37 62 86 100 100 72 100 95 71 74 65 56 49 3 0 3 0 0 2 46 5 55 45 100 36 56 36 50 5
65 61 91 99 65 100 100 23 57 12 5 5 4 0 7 56 100 36 5 36 5 5 4 5 60 67 34 13 0 0 0 0 0 1 14 31 5 73 17 11 22 18 8
0 0 0 0 18 100 81 23 6 5 5 3 0 0 4 8 28 69 5 2 0 0 0 5 4 6 5 2 0 0 0 0 2 0 0 2 5 6 10 9 20 22 23
0 0 0 0 0 1 0 5 6 0 7 1 5 0 4 0 1 5 5 0 0 0 2 1 0 0 0 0 0 0 3 5 5 4 0 0 6 5 5 15 13 15 78
7 0 0 0 0 0 0 0 0 0 0 17 0 0 0 0 0 0 2 0 0 0 0 0 0 0 5 1 0 1 0 5 5 5 5 5 27 6 7 7 14 20 12
84 0 0 0 0 0 0 5 0 4 4 0 0 0 0 0 0 0 0 0 0 0 0 0 0 0 5 3 0 0 2 5 5 74 12 74 58 12 69 82 87 39 82